Regional Weather Roundup
Issued by NWS Charleston, SC

Current Version | Previous Version | Graphics & Text | Print | Product List | Glossary On
Versions: 1 2 3 4 5 6 7 8 9 10 11 12 13 14 15 16 17 18 19 20 21 22 23 24 25 26 27 28 29 30 31 32 33 34 35 36 37 38 39 40 41 42 43 44 45 46 47 48 49 50
000 ASUS42 KCHS 060527 RWRCHS REGIONAL WEATHER ROUNDUP NATIONAL WEATHER SERVICE CHARLESTON SC 1200 AM EST SAT FEB 06 2016 NOTE: "FAIR" INDICATES FEW OR NO CLOUDS BELOW 12,000 FEET WITH NO SIGNIFICANT WEATHER AND/OR OBSTRUCTIONS TO VISIBILITY. NOT ALL STATIONS ARE QUALITY CONTROLLED BY THE NATIONAL WEATHER SERVICE. USE DATA WITH CAUTION...ESPECIALLY DEWPOINT OBSERVATIONS. NOTICE: OBSERVATIONS FOR THE SAVANNAH-HILTON HEAD INTERNATIONAL AIRPORT /KSAV/ HAVE BEEN TEMPORARILY REMOVED DUE TO AN ERRONEOUS TEMPERATURE SENSOR. THE OBSERVATION WILL BE REINTRODUCED ONCE REPAIRS ARE COMPLETE. SCZ027-030-031-034>040-042>050-060600- ...SOUTHEAST SOUTH CAROLINA... CITY SKY/WX TMP DP RH WIND PRES REMARKS N CHARLESTON CLEAR 37 31 78 N3 30.39S WATERFRONT PRK N/A 45 34 65 NE7 30.24S MOUNT PLEASANT FAIR 36 34 93 CALM 30.39F JOHNS ISLAND FAIR 36 32 87 N6 30.38F WCI 31 PINOPOLIS N/A 46 30 53 NE8 30.31F MONCKS CORNER FAIR 32 28 86 CALM 30.39F SUMMERVILLE NOT AVBL BEAUFORT MCAS CLEAR 40 29 64 NE3 30.39F BEAUFORT ARPT FAIR 41 32 70 NE6 30.38F HILTON HEAD IS CLEAR N/A N/A N/A N6 30.39F WALTERBORO CLEAR 43 27 52 NE5 30.41S ALLENDALE FAIR 37 27 65 CALM 30.38F ...SOUTHERN MIDLANDS AND PEE DEE... CITY SKY/WX TMP DP RH WIND PRES REMARKS GEORGETOWN NOT AVBL KINGSTREE NOT AVBL ORANGEBURG CLEAR 34 28 79 CALM 30.40S BARNWELL FAIR 32 30 93 CALM 30.40F AIKEN FAIR 30 25 80 E5 30.41F WCI 25 MANNING FAIR 32 30 93 CALM 30.41S COLUMBIA CLEAR 32 26 78 CALM 30.40S SUMTER CLEAR 33 26 76 CALM 30.38F FLORENCE CLEAR 33 29 85 CALM 30.41F MYRTLE BEACH CLEAR 37 28 70 CALM 30.42F N MYRTLE BEACH CLEAR 35 32 88 CALM 30.40F $$ GAZ063-065-086>088-099>101-113>116-118-119-134>141-150-060600- ...SOUTHEAST GEORGIA... CITY SKY/WX TMP DP RH WIND PRES REMARKS SAVANNAH ARPT CLEAR 36 29 75 NE5 30.38F WCI 32 HUNTER AAF CLEAR 42 28 57 E5 30.35F FORT STEWART CLEAR 35 31 85 CALM 30.36S STATESBORO CLEAR 38 29 71 CALM 30.38F SYLVANIA CLEAR 35 34 95 CALM 30.39F CLAXTON FAIR 35 34 95 CALM 30.38F ...CSRA...CENTRAL AND FAR SOUTHEAST GEORGIA... CITY SKY/WX TMP DP RH WIND PRES REMARKS THOMSON CLEAR 31 31 99 CALM 30.43S AUGUSTA-BUSH CLEAR 31 28 89 CALM 30.40S AUGUSTA-DANIEL CLEAR 41 20 43 E6 30.38F SWAINSBORO FAIR 37 28 70 CALM 30.39S VIDALIA CLEAR 37 30 75 NE5 30.37F WCI 34 EASTMAN FOG 31 31 100 CALM 30.40F VSB 3/4 HAZLEHURST FAIR 40 31 70 NE3 30.36S ALMA CLEAR 34 32 92 CALM 30.36S WAYCROSS CLEAR 38 37 97 CALM 30.37S JESUP FAIR 37 36 93 CALM 30.38R BAXLEY FAIR 36 36 100 CALM 30.36S BRUNSWICK CLEAR 36 36 100 CALM 30.37S SAINT SIMONS PTCLDY 41 35 79 N3 30.36R $$ SCZ027-028-034-036>038-045-046-048>050-GAZ119-141-060600- ...LAKE AND SUPPLEMENTAL COASTAL OBSERVATIONS... STATION/POSITION TIME TEMP WIND PRES WAVE SWELL AIR SEA DIR/SP/G HT/PER HT/PER/DIR (UTC) (F) (DEG/KT/KT) (MB) (FT/S) (FT/S/D) WINYAH BAY 0445 41 30/ 4 1028.0R LAKE MURRAY 0400 38 CALM / 1 1028.8R ACE BASIN NERRS 0445 35 CALM 1029.0S FORT PULASKI 0500 47 55 20/ 8/ 11 1028.7F SAPELO ISLAND 0500 41 40/ 4 1028.0S $$ ANZ835-935-AMZ111-154-330-350-352-354-370-450-454-472-060600- ...C-MAN AND BUOY OBSERVATIONS... STATION/POSITION TIME TEMP WIND PRES WAVE SWELL AIR SEA DIR/SP/G HT/PER HT/PER/DIR (UTC) (F) (DEG/KT/KT) (MB) (FT/S) (FT/S/D) BUOY 41004 0450 51 67 30/ 14/ 19 1027.8F 4/ 6 2/ 8 BUOY 41008 0450 51 56 50/ 14/ 17 1028.1F 3/ 6 2/110/ 9 FOLLY BEACH CMAN 0500 46 30/ 9/ 11 1028.9F CAPERS NEARSHORE 0408 49 60/ 14/ 19 1028.1R FRIPP NEARSHORE 0400 49 40/ 14/ 16 1027.8S STATION/POSITION TIME TEMP WIND PRES WAVE SWELL AIR SEA DIR/SP/G HT/PER HT/PER/DIR (UTC) (F) (DEG/KT/KT) (MB) (FT/S) (FT/S/D) 5E ST. MARYS GA 0421 58 N/A 3/ 6 FRYING PAN BUOY 0500 50 69 10/ 14/ 17 1029.0R BUOY 41025 0450 73 20/ 16/ 21 1028.9R 8/11 7/ 60/11 CAPE LOOKOUT NC NOT AVBL BUOY 41002 0450 59 69 40/ 19/ 25 N/A 11/ 9 8/350/ 9 BUOY 41010 0420 65 73 1023.1S ST AUGUSTINE FL 0500 54 58 20/ 24/ 27 1025.7F $$

USA.gov is the U.S. government's official web portal to all federal, state and local government web resources and services.